owner,sensor,date,latitude,longitude,vertical_datum,wind_speed,wind_to_direction,wind_speed_of_gust,qcFlag 
DISL,ioos:station:DISL:MHPA:1,2013-01-01T06:30:00Z,30.6671,-87.9365,8.5,3.88,123.2,-9999.0,'1111122,1111122,1111122' 
DISL,ioos:station:DISL:MHPA:1,2013-01-01T07:00:00Z,30.6671,-87.9365,8.5,3.66,126.9,-9999.0,'1111122,1111122,1111122' 
DISL,ioos:station:DISL:MHPA:1,2013-01-01T07:30:00Z,30.6671,-87.9365,8.5,6.41,137.7,-9999.0,'1111122,1111122,1111122' 
DISL,ioos:station:DISL:MHPA:1,2013-01-01T08:00:00Z,30.6671,-87.9365,8.5,5.32,144.8,-9999.0,'1111122,1111122,1111122' 
DISL,ioos:station:DISL:MHPA:1,2013-01-01T08:30:00Z,30.6671,-87.9365,8.5,4.54,145.5,-9999.0,'1111122,1111122,1111122' 
DISL,ioos:station:DISL:MHPA:1,2013-01-01T09:00:00Z,30.6671,-87.9365,8.5,4.61,143.7,-9999.0,'1111122,1111122,1111122' 
DISL,ioos:station:DISL:MHPA:1,2013-01-01T09:30:00Z,30.6671,-87.9365,8.5,5.68,158.7,-9999.0,'1111122,1111122,1111122' 
DISL,ioos:station:DISL:MHPA:1,2013-01-01T10:00:00Z,30.6671,-87.9365,8.5,6.52,161.0,-9999.0,'1111122,1111122,1111122' 
DISL,ioos:station:DISL:MHPA:1,2013-01-01T10:30:00Z,30.6671,-87.9365,8.5,6.92,166.3,-9999.0,'1111122,1111122,1111122' 
DISL,ioos:station:DISL:MHPA:1,2013-01-01T11:00:00Z,30.6671,-87.9365,8.5,6.12,166.0,-9999.0,'1111122,1111122,1111122' 
DISL,ioos:station:DISL:MHPA:1,2013-01-01T11:30:00Z,30.6671,-87.9365,8.5,4.82,165.8,-9999.0,'1111122,1111122,1111122' 
DISL,ioos:station:DISL:MHPA:1,2013-01-01T12:00:00Z,30.6671,-87.9365,8.5,5.67,166.2,-9999.0,'1111122,1111122,1111122' 
DISL,ioos:station:DISL:MHPA:1,2013-01-01T12:30:00Z,30.6671,-87.9365,8.5,4.14,177.0,-9999.0,'1111122,1111122,1111122' 
DISL,ioos:station:DISL:MHPA:1,2013-01-01T13:00:00Z,30.6671,-87.9365,8.5,5.12,168.9,-9999.0,'1111122,1111122,1111122' 
DISL,ioos:station:DISL:MHPA:1,2013-01-01T13:30:00Z,30.6671,-87.9365,8.5,5.51,162.4,-9999.0,'1111122,1111122,1111122' 
DISL,ioos:station:DISL:MHPA:1,2013-01-01T14:00:00Z,30.6671,-87.9365,8.5,5.55,173.6,-9999.0,'1111122,1111122,1111122' 
DISL,ioos:station:DISL:MHPA:1,2013-01-01T14:30:00Z,30.6671,-87.9365,8.5,5.79,172.3,-9999.0,'1111122,1111122,1111122' 
DISL,ioos:station:DISL:MHPA:1,2013-01-01T15:00:00Z,30.6671,-87.9365,8.5,5.3,169.0,-9999.0,'1111122,1111122,1111122' 
DISL,ioos:station:DISL:MHPA:1,2013-01-01T15:30:00Z,30.6671,-87.9365,8.5,6.0,176.0,-9999.0,'1111122,1111122,1111122' 
DISL,ioos:station:DISL:MHPA:1,2013-01-01T16:00:00Z,30.6671,-87.9365,8.5,7.16,174.5,-9999.0,'1111122,1111122,1111122' 
DISL,ioos:station:DISL:MHPA:1,2013-01-01T16:30:00Z,30.6671,-87.9365,8.5,6.91,174.3,-9999.0,'1111122,1111122,1111122' 
DISL,ioos:station:DISL:MHPA:1,2013-01-01T17:00:00Z,30.6671,-87.9365,8.5,5.98,177.8,-9999.0,'1111122,1111122,1111122' 
DISL,ioos:station:DISL:MHPA:1,2013-01-01T17:30:00Z,30.6671,-87.9365,8.5,6.5,174.9,-9999.0,'1111122,1111122,1111122' 
DISL,ioos:station:DISL:MHPA:1,2013-01-01T18:00:00Z,30.6671,-87.9365,8.5,6.38,176.5,-9999.0,'1111122,1111122,1111122' 
DISL,ioos:station:DISL:MHPA:1,2013-01-01T18:30:00Z,30.6671,-87.9365,8.5,6.96,174.9,-9999.0,'1111122,1111122,1111122' 
DISL,ioos:station:DISL:MHPA:1,2013-01-01T19:00:00Z,30.6671,-87.9365,8.5,7.09,173.8,-9999.0,'1111122,1111122,1111122' 
DISL,ioos:station:DISL:MHPA:1,2013-01-01T19:30:00Z,30.6671,-87.9365,8.5,7.79,167.4,-9999.0,'1111122,1111122,1111122' 
DISL,ioos:station:DISL:MHPA:1,2013-01-01T20:00:00Z,30.6671,-87.9365,8.5,7.19,171.3,-9999.0,'1111122,1111122,1111122' 
DISL,ioos:station:DISL:MHPA:1,2013-01-01T20:30:00Z,30.6671,-87.9365,8.5,7.24,169.9,-9999.0,'1111122,1111122,1111122' 
DISL,ioos:station:DISL:MHPA:1,2013-01-01T21:00:00Z,30.6671,-87.9365,8.5,6.14,173.0,-9999.0,'1111122,1111122,1111122' 
DISL,ioos:station:DISL:MHPA:1,2013-01-01T21:30:00Z,30.6671,-87.9365,8.5,6.22,174.4,-9999.0,'1111122,1111122,1111122' 
DISL,ioos:station:DISL:MHPA:1,2013-01-01T22:00:00Z,30.6671,-87.9365,8.5,5.85,169.7,-9999.0,'1111122,1111122,1111122' 
DISL,ioos:station:DISL:MHPA:1,2013-01-01T22:30:00Z,30.6671,-87.9365,8.5,5.18,171.3,-9999.0,'1111122,1111122,1111122' 
DISL,ioos:station:DISL:MHPA:1,2013-01-01T23:00:00Z,30.6671,-87.9365,8.5,4.01,180.6,-9999.0,'1111122,1111122,1111122' 
DISL,ioos:station:DISL:MHPA:1,2013-01-01T23:30:00Z,30.6671,-87.9365,8.5,3.9,183.1,-9999.0,'1111122,1111122,1111122' 
DISL,ioos:station:DISL:MHPA:1,2013-01-02T00:00:00Z,30.6671,-87.9365,8.5,4.26,175.3,-9999.0,'1111122,1111122,1111122' 
DISL,ioos:station:DISL:MHPA:1,2013-01-02T00:30:00Z,30.6671,-87.9365,8.5,3.27,187.9,-9999.0,'1111122,1111122,1111122' 
DISL,ioos:station:DISL:MHPA:1,2013-01-02T01:00:00Z,30.6671,-87.9365,8.5,3.33,186.0,-9999.0,'1111122,1111122,1111122' 
DISL,ioos:station:DISL:MHPA:1,2013-01-02T01:30:00Z,30.6671,-87.9365,8.5,3.16,187.9,-9999.0,'1111122,1111122,1111122' 
DISL,ioos:station:DISL:MHPA:1,2013-01-02T02:00:00Z,30.6671,-87.9365,8.5,3.52,241.6,-9999.0,'1111122,1111122,1111122' 
DISL,ioos:station:DISL:MHPA:1,2013-01-02T02:30:00Z,30.6671,-87.9365,8.5,3.54,219.6,-9999.0,'1111122,1111122,1111122' 
DISL,ioos:station:DISL:MHPA:1,2013-01-02T03:00:00Z,30.6671,-87.9365,8.5,3.07,245.4,-9999.0,'1111122,1111122,1111122' 
DISL,ioos:station:DISL:MHPA:1,2013-01-02T03:30:00Z,30.6671,-87.9365,8.5,1.66,254.5,-9999.0,'1111122,1111122,1111122' 
DISL,ioos:station:DISL:MHPA:1,2013-01-02T04:00:00Z,30.6671,-87.9365,8.5,5.55,342.3,-9999.0,'1111122,1111122,1111122' 
DISL,ioos:station:DISL:MHPA:1,2013-01-02T04:30:00Z,30.6671,-87.9365,8.5,5.14,345.7,-9999.0,'1111122,1111122,1111122' 
DISL,ioos:station:DISL:MHPA:1,2013-01-02T05:00:00Z,30.6671,-87.9365,8.5,5.64,350.4,-9999.0,'1111122,1111122,1111122' 
DISL,ioos:station:DISL:MHPA:1,2013-01-02T05:30:00Z,30.6671,-87.9365,8.5,5.02,359.1,-9999.0,'1111122,1111122,1111122' 
DISL,ioos:station:DISL:MHPA:1,2013-01-02T06:00:00Z,30.6671,-87.9365,8.5,4.05,8.87,-9999.0,'1111122,1111122,1111122' 
DISL,ioos:station:DISL:MHPA:1,2013-01-02T06:30:00Z,30.6671,-87.9365,8.5,3.18,352.8,-9999.0,'1111122,1111122,1111122' 
DISL,ioos:station:DISL:MHPA:1,2013-01-02T07:00:00Z,30.6671,-87.9365,8.5,2.93,354.4,-9999.0,'1111122,1111122,1111122' 
DISL,ioos:station:DISL:MHPA:1,2013-01-02T07:30:00Z,30.6671,-87.9365,8.5,3.45,358.4,-9999.0,'1111122,1111122,1111122' 
DISL,ioos:station:DISL:MHPA:1,2013-01-02T08:00:00Z,30.6671,-87.9365,8.5,4.54,342.6,-9999.0,'1111122,1111122,1111122' 
DISL,ioos:station:DISL:MHPA:1,2013-01-02T08:30:00Z,30.6671,-87.9365,8.5,4.52,358.3,-9999.0,'1111122,1111122,1111122' 
DISL,ioos:station:DISL:MHPA:1,2013-01-02T09:00:00Z,30.6671,-87.9365,8.5,5.09,358.6,-9999.0,'1111122,1111122,1111122' 
DISL,ioos:station:DISL:MHPA:1,2013-01-02T09:30:00Z,30.6671,-87.9365,8.5,5.02,348.8,-9999.0,'1111122,1111122,1111122' 
DISL,ioos:station:DISL:MHPA:1,2013-01-02T10:00:00Z,30.6671,-87.9365,8.5,4.76,7.72,-9999.0,'1111122,1111122,1111122' 
DISL,ioos:station:DISL:MHPA:1,2013-01-02T10:30:00Z,30.6671,-87.9365,8.5,3.75,6.275,-9999.0,'1111122,1111122,1111122' 
DISL,ioos:station:DISL:MHPA:1,2013-01-02T11:00:00Z,30.6671,-87.9365,8.5,4.28,349.0,-9999.0,'1111122,1111122,1111122' 
DISL,ioos:station:DISL:MHPA:1,2013-01-02T11:30:00Z,30.6671,-87.9365,8.5,3.64,8.45,-9999.0,'1111122,1111122,1111122' 
DISL,ioos:station:DISL:MHPA:1,2013-01-02T12:00:00Z,30.6671,-87.9365,8.5,2.74,1.898,-9999.0,'1111122,1111122,1111122' 
DISL,ioos:station:DISL:MHPA:1,2013-01-02T12:30:00Z,30.6671,-87.9365,8.5,2.54,11.86,-9999.0,'1111122,1111122,1111122' 
DISL,ioos:station:DISL:MHPA:1,2013-01-02T13:00:00Z,30.6671,-87.9365,8.5,3.09,7.06,-9999.0,'1111122,1111122,1111122' 
DISL,ioos:station:DISL:MHPA:1,2013-01-02T13:30:00Z,30.6671,-87.9365,8.5,3.14,359.2,-9999.0,'1111122,1111122,1111122' 
DISL,ioos:station:DISL:MHPA:1,2013-01-02T14:00:00Z,30.6671,-87.9365,8.5,4.51,357.4,-9999.0,'1111122,1111122,1111122' 
DISL,ioos:station:DISL:MHPA:1,2013-01-02T14:30:00Z,30.6671,-87.9365,8.5,3.1,5.525,-9999.0,'1111122,1111122,1111122' 
DISL,ioos:station:DISL:MHPA:1,2013-01-02T15:00:00Z,30.6671,-87.9365,8.5,4.58,0.713,-9999.0,'1111122,1111122,1111122' 
DISL,ioos:station:DISL:MHPA:1,2013-01-02T15:30:00Z,30.6671,-87.9365,8.5,3.28,12.87,-9999.0,'1111122,1111122,1111122' 
DISL,ioos:station:DISL:MHPA:1,2013-01-02T16:00:00Z,30.6671,-87.9365,8.5,4.9,340.5,-9999.0,'1111122,1111122,1111122' 
DISL,ioos:station:DISL:MHPA:1,2013-01-02T16:30:00Z,30.6671,-87.9365,8.5,4.94,346.0,-9999.0,'1111122,1111122,1111122' 
DISL,ioos:station:DISL:MHPA:1,2013-01-02T17:00:00Z,30.6671,-87.9365,8.5,4.55,343.4,-9999.0,'1111122,1111122,1111122' 
DISL,ioos:station:DISL:MHPA:1,2013-01-02T17:30:00Z,30.6671,-87.9365,8.5,5.77,341.1,-9999.0,'1111122,1111122,1111122' 
DISL,ioos:station:DISL:MHPA:1,2013-01-02T18:00:00Z,30.6671,-87.9365,8.5,4.55,349.6,-9999.0,'1111122,1111122,1111122' 
DISL,ioos:station:DISL:MHPA:1,2013-01-02T18:30:00Z,30.6671,-87.9365,8.5,4.58,354.8,-9999.0,'1111122,1111122,1111122' 
DISL,ioos:station:DISL:MHPA:1,2013-01-02T19:00:00Z,30.6671,-87.9365,8.5,4.14,10.3,-9999.0,'1111122,1111122,1111122' 
DISL,ioos:station:DISL:MHPA:1,2013-01-02T19:30:00Z,30.6671,-87.9365,8.5,4.19,7.45,-9999.0,'1111122,1111122,1111122' 
DISL,ioos:station:DISL:MHPA:1,2013-01-02T20:00:00Z,30.6671,-87.9365,8.5,4.24,349.2,-9999.0,'1111122,1111122,1111122' 
DISL,ioos:station:DISL:MHPA:1,2013-01-02T20:30:00Z,30.6671,-87.9365,8.5,4.27,351.2,-9999.0,'1111122,1111122,1111122' 
DISL,ioos:station:DISL:MHPA:1,2013-01-02T21:00:00Z,30.6671,-87.9365,8.5,3.69,359.2,-9999.0,'1111122,1111122,1111122' 
DISL,ioos:station:DISL:MHPA:1,2013-01-02T21:30:00Z,30.6671,-87.9365,8.5,4.05,1.913,-9999.0,'1111122,1111122,1111122' 
DISL,ioos:station:DISL:MHPA:1,2013-01-02T22:00:00Z,30.6671,-87.9365,8.5,3.73,348.6,-9999.0,'1111122,1111122,1111122' 
DISL,ioos:station:DISL:MHPA:1,2013-01-02T22:30:00Z,30.6671,-87.9365,8.5,5.21,338.3,-9999.0,'1111122,1111122,1111122' 
DISL,ioos:station:DISL:MHPA:1,2013-01-02T23:00:00Z,30.6671,-87.9365,8.5,4.68,341.4,-9999.0,'1111122,1111122,1111122' 
DISL,ioos:station:DISL:MHPA:1,2013-01-02T23:30:00Z,30.6671,-87.9365,8.5,4.27,344.2,-9999.0,'1111122,1111122,1111122' 
DISL,ioos:station:DISL:MHPA:1,2013-01-03T00:00:00Z,30.6671,-87.9365,8.5,3.75,351.4,-9999.0,'1111122,1111122,1111122' 
DISL,ioos:station:DISL:MHPA:1,2013-01-03T00:30:00Z,30.6671,-87.9365,8.5,4.25,3.335,-9999.0,'1111122,1111122,1111122' 
DISL,ioos:station:DISL:MHPA:1,2013-01-03T01:00:00Z,30.6671,-87.9365,8.5,4.49,6.556,-9999.0,'1111122,1111122,1111122' 
DISL,ioos:station:DISL:MHPA:1,2013-01-03T01:30:00Z,30.6671,-87.9365,8.5,5.09,359.6,-9999.0,'1111122,1111122,1111122' 
DISL,ioos:station:DISL:MHPA:1,2013-01-03T02:00:00Z,30.6671,-87.9365,8.5,4.94,8.58,-9999.0,'1111122,1111122,1111122' 
DISL,ioos:station:DISL:MHPA:1,2013-01-03T02:30:00Z,30.6671,-87.9365,8.5,4.88,358.6,-9999.0,'1111122,1111122,1111122' 
DISL,ioos:station:DISL:MHPA:1,2013-01-03T03:00:00Z,30.6671,-87.9365,8.5,4.72,357.9,-9999.0,'1111122,1111122,1111122' 
DISL,ioos:station:DISL:MHPA:1,2013-01-03T03:30:00Z,30.6671,-87.9365,8.5,3.86,7.05,-9999.0,'1111122,1111122,1111122' 
DISL,ioos:station:DISL:MHPA:1,2013-01-03T04:00:00Z,30.6671,-87.9365,8.5,3.78,345.0,-9999.0,'1111122,1111122,1111122' 
DISL,ioos:station:DISL:MHPA:1,2013-01-03T04:30:00Z,30.6671,-87.9365,8.5,3.89,8.01,-9999.0,'1111122,1111122,1111122' 
DISL,ioos:station:DISL:MHPA:1,2013-01-03T05:00:00Z,30.6671,-87.9365,8.5,4.08,340.5,-9999.0,'1111122,1111122,1111122' 
DISL,ioos:station:DISL:MHPA:1,2013-01-03T05:30:00Z,30.6671,-87.9365,8.5,3.71,355.4,-9999.0,'1111122,1111122,1111122' 
DISL,ioos:station:DISL:MHPA:1,2013-01-03T06:00:00Z,30.6671,-87.9365,8.5,3.77,344.3,-9999.0,'1111122,1111122,1111122' 
DISL,ioos:station:DISL:MHPA:1,2013-01-03T06:30:00Z,30.6671,-87.9365,8.5,3.61,359.1,-9999.0,'1111122,1111122,1111122' 
DISL,ioos:station:DISL:MHPA:1,2013-01-03T07:00:00Z,30.6671,-87.9365,8.5,3.63,357.2,-9999.0,'1111122,1111122,1111122' 
DISL,ioos:station:DISL:MHPA:1,2013-01-03T07:30:00Z,30.6671,-87.9365,8.5,2.64,3.452,-9999.0,'1111122,1111122,1111122' 
DISL,ioos:station:DISL:MHPA:1,2013-01-03T08:00:00Z,30.6671,-87.9365,8.5,3.81,349.5,-9999.0,'1111122,1111122,1111122' 
DISL,ioos:station:DISL:MHPA:1,2013-01-03T08:30:00Z,30.6671,-87.9365,8.5,3.46,352.5,-9999.0,'1111122,1111122,1111122' 
DISL,ioos:station:DISL:MHPA:1,2013-01-03T09:00:00Z,30.6671,-87.9365,8.5,3.62,0.21,-9999.0,'1111122,1111122,1111122' 
DISL,ioos:station:DISL:MHPA:1,2013-01-03T09:30:00Z,30.6671,-87.9365,8.5,3.61,354.0,-9999.0,'1111122,1111122,1111122' 
DISL,ioos:station:DISL:MHPA:1,2013-01-03T10:00:00Z,30.6671,-87.9365,8.5,4.14,350.3,-9999.0,'1111122,1111122,1111122' 
DISL,ioos:station:DISL:MHPA:1,2013-01-03T10:30:00Z,30.6671,-87.9365,8.5,2.09,21.35,-9999.0,'1111122,1111122,1111122' 
DISL,ioos:station:DISL:MHPA:1,2013-01-03T11:00:00Z,30.6671,-87.9365,8.5,3.55,346.6,-9999.0,'1111122,1111122,1111122' 
DISL,ioos:station:DISL:MHPA:1,2013-01-03T11:30:00Z,30.6671,-87.9365,8.5,3.49,336.3,-9999.0,'1111122,1111122,1111122' 
DISL,ioos:station:DISL:MHPA:1,2013-01-03T12:00:00Z,30.6671,-87.9365,8.5,4.08,2.438,-9999.0,'1111122,1111122,1111122' 
DISL,ioos:station:DISL:MHPA:1,2013-01-03T12:30:00Z,30.6671,-87.9365,8.5,2.83,352.9,-9999.0,'1111122,1111122,1111122' 
DISL,ioos:station:DISL:MHPA:1,2013-01-03T13:00:00Z,30.6671,-87.9365,8.5,4.81,332.1,-9999.0,'1111122,1111122,1111122' 
DISL,ioos:station:DISL:MHPA:1,2013-01-03T13:30:00Z,30.6671,-87.9365,8.5,4.22,350.1,-9999.0,'1111122,1111122,1111122' 
DISL,ioos:station:DISL:MHPA:1,2013-01-03T14:00:00Z,30.6671,-87.9365,8.5,4.19,354.5,-9999.0,'1111122,1111122,1111122' 
DISL,ioos:station:DISL:MHPA:1,2013-01-03T14:30:00Z,30.6671,-87.9365,8.5,4.88,349.1,-9999.0,'1111122,1111122,1111122' 
DISL,ioos:station:DISL:MHPA:1,2013-01-03T15:00:00Z,30.6671,-87.9365,8.5,4.75,353.3,-9999.0,'1111122,1111122,1111122' 
DISL,ioos:station:DISL:MHPA:1,2013-01-03T15:30:00Z,30.6671,-87.9365,8.5,5.88,352.0,-9999.0,'1111122,1111122,1111122' 
DISL,ioos:station:DISL:MHPA:1,2013-01-03T16:00:00Z,30.6671,-87.9365,8.5,4.52,353.1,-9999.0,'1111122,1111122,1111122' 
DISL,ioos:station:DISL:MHPA:1,2013-01-03T16:30:00Z,30.6671,-87.9365,8.5,4.01,3.461,-9999.0,'1111122,1111122,1111122' 
DISL,ioos:station:DISL:MHPA:1,2013-01-03T17:00:00Z,30.6671,-87.9365,8.5,4.02,353.6,-9999.0,'1111122,1111122,1111122' 
DISL,ioos:station:DISL:MHPA:1,2013-01-03T17:30:00Z,30.6671,-87.9365,8.5,4.69,347.7,-9999.0,'1111122,1111122,1111122' 
DISL,ioos:station:DISL:MHPA:1,2013-01-03T18:00:00Z,30.6671,-87.9365,8.5,4.42,349.2,-9999.0,'1111122,1111122,1111122' 
DISL,ioos:station:DISL:MHPA:1,2013-01-03T18:30:00Z,30.6671,-87.9365,8.5,4.51,350.9,-9999.0,'1111122,1111122,1111122' 
DISL,ioos:station:DISL:MHPA:1,2013-01-03T19:00:00Z,30.6671,-87.9365,8.5,3.37,8.03,-9999.0,'1111122,1111122,1111122' 
DISL,ioos:station:DISL:MHPA:1,2013-01-03T19:30:00Z,30.6671,-87.9365,8.5,4.62,348.6,-9999.0,'1111122,1111122,1111122' 
DISL,ioos:station:DISL:MHPA:1,2013-01-03T20:00:00Z,30.6671,-87.9365,8.5,4.82,353.7,-9999.0,'1111122,1111122,1111122' 
DISL,ioos:station:DISL:MHPA:1,2013-01-03T20:30:00Z,30.6671,-87.9365,8.5,4.51,5.939,-9999.0,'1111122,1111122,1111122' 
DISL,ioos:station:DISL:MHPA:1,2013-01-03T21:00:00Z,30.6671,-87.9365,8.5,3.83,3.439,-9999.0,'1111122,1111122,1111122' 
DISL,ioos:station:DISL:MHPA:1,2013-01-03T21:30:00Z,30.6671,-87.9365,8.5,3.85,5.364,-9999.0,'1111122,1111122,1111122' 
DISL,ioos:station:DISL:MHPA:1,2013-01-03T22:00:00Z,30.6671,-87.9365,8.5,3.25,7.04,-9999.0,'1111122,1111122,1111122' 
DISL,ioos:station:DISL:MHPA:1,2013-01-03T22:30:00Z,30.6671,-87.9365,8.5,3.56,5.713,-9999.0,'1111122,1111122,1111122' 
DISL,ioos:station:DISL:MHPA:1,2013-01-03T23:00:00Z,30.6671,-87.9365,8.5,3.76,357.6,-9999.0,'1111122,1111122,1111122' 
DISL,ioos:station:DISL:MHPA:1,2013-01-03T23:30:00Z,30.6671,-87.9365,8.5,1.76,5.166,-9999.0,'1111122,1111122,1111122' 
DISL,ioos:station:DISL:MHPA:1,2013-01-04T00:00:00Z,30.6671,-87.9365,8.5,1.42,5.72,-9999.0,'1111122,1111122,1111122' 
DISL,ioos:station:DISL:MHPA:1,2013-01-04T00:30:00Z,30.6671,-87.9365,8.5,2.56,5.505,-9999.0,'1111122,1111122,1111122' 
DISL,ioos:station:DISL:MHPA:1,2013-01-04T01:00:00Z,30.6671,-87.9365,8.5,2.43,1.437,-9999.0,'1111122,1111122,1111122' 
DISL,ioos:station:DISL:MHPA:1,2013-01-04T01:30:00Z,30.6671,-87.9365,8.5,1.71,0.934,-9999.0,'1111122,1111122,1111122' 
DISL,ioos:station:DISL:MHPA:1,2013-01-04T02:00:00Z,30.6671,-87.9365,8.5,1.23,10.18,-9999.0,'1111122,1111122,1111122' 
DISL,ioos:station:DISL:MHPA:1,2013-01-04T02:30:00Z,30.6671,-87.9365,8.5,1.22,9.12,-9999.0,'1111122,1111122,1111122' 
DISL,ioos:station:DISL:MHPA:1,2013-01-04T03:00:00Z,30.6671,-87.9365,8.5,1.2,23.38,-9999.0,'1111122,1111122,1111122' 
DISL,ioos:station:DISL:MHPA:1,2013-01-04T03:30:00Z,30.6671,-87.9365,8.5,1.06,22.02,-9999.0,'1111122,1111122,1111122' 
DISL,ioos:station:DISL:MHPA:1,2013-01-04T04:00:00Z,30.6671,-87.9365,8.5,1.67,17.31,-9999.0,'1111122,1111122,1111122' 
DISL,ioos:station:DISL:MHPA:1,2013-01-04T04:30:00Z,30.6671,-87.9365,8.5,2.63,4.022,-9999.0,'1111122,1111122,1111122' 
DISL,ioos:station:DISL:MHPA:1,2013-01-04T05:00:00Z,30.6671,-87.9365,8.5,2.26,7.77,-9999.0,'1111122,1111122,1111122' 
DISL,ioos:station:DISL:MHPA:1,2013-01-04T05:30:00Z,30.6671,-87.9365,8.5,2.59,1.012,-9999.0,'1111122,1111122,1111122' 
DISL,ioos:station:DISL:MHPA:1,2013-01-04T06:00:00Z,30.6671,-87.9365,8.5,1.79,15.11,-9999.0,'1111122,1111122,1111122' 
DISL,ioos:station:DISL:MHPA:1,2013-01-04T06:30:00Z,30.6671,-87.9365,8.5,1.8,15.48,-9999.0,'1111122,1111122,1111122' 
DISL,ioos:station:DISL:MHPA:1,2013-01-04T07:00:00Z,30.6671,-87.9365,8.5,1.99,350.4,-9999.0,'1111122,1111122,1111122' 
DISL,ioos:station:DISL:MHPA:1,2013-01-04T07:30:00Z,30.6671,-87.9365,8.5,1.95,357.3,-9999.0,'1111122,1111122,1111122' 
DISL,ioos:station:DISL:MHPA:1,2013-01-04T08:00:00Z,30.6671,-87.9365,8.5,2.37,357.3,-9999.0,'1111122,1111122,1111122' 
DISL,ioos:station:DISL:MHPA:1,2013-01-04T08:30:00Z,30.6671,-87.9365,8.5,1.95,11.36,-9999.0,'1111122,1111122,1111122' 
DISL,ioos:station:DISL:MHPA:1,2013-01-04T09:00:00Z,30.6671,-87.9365,8.5,2.12,9.9,-9999.0,'1111122,1111122,1111122' 
DISL,ioos:station:DISL:MHPA:1,2013-01-04T09:30:00Z,30.6671,-87.9365,8.5,2.7,0.422,-9999.0,'1111122,1111122,1111122' 
DISL,ioos:station:DISL:MHPA:1,2013-01-04T10:00:00Z,30.6671,-87.9365,8.5,3.07,5.705,-9999.0,'1111122,1111122,1111122' 
DISL,ioos:station:DISL:MHPA:1,2013-01-04T10:30:00Z,30.6671,-87.9365,8.5,3.27,6.334,-9999.0,'1111122,1111122,1111122' 
DISL,ioos:station:DISL:MHPA:1,2013-01-04T11:00:00Z,30.6671,-87.9365,8.5,3.28,358.9,-9999.0,'1111122,1111122,1111122' 
DISL,ioos:station:DISL:MHPA:1,2013-01-04T11:30:00Z,30.6671,-87.9365,8.5,2.77,4.804,-9999.0,'1111122,1111122,1111122' 
DISL,ioos:station:DISL:MHPA:1,2013-01-04T12:00:00Z,30.6671,-87.9365,8.5,2.24,10.83,-9999.0,'1111122,1111122,1111122' 
DISL,ioos:station:DISL:MHPA:1,2013-01-04T12:30:00Z,30.6671,-87.9365,8.5,3.41,0.443,-9999.0,'1111122,1111122,1111122' 
DISL,ioos:station:DISL:MHPA:1,2013-01-04T13:00:00Z,30.6671,-87.9365,8.5,3.03,358.9,-9999.0,'1111122,1111122,1111122' 
DISL,ioos:station:DISL:MHPA:1,2013-01-04T13:30:00Z,30.6671,-87.9365,8.5,2.39,20.87,-9999.0,'1111122,1111122,1111122' 
DISL,ioos:station:DISL:MHPA:1,2013-01-04T14:00:00Z,30.6671,-87.9365,8.5,2.64,20.94,-9999.0,'1111122,1111122,1111122' 
DISL,ioos:station:DISL:MHPA:1,2013-01-04T14:30:00Z,30.6671,-87.9365,8.5,2.72,358.5,-9999.0,'1111122,1111122,1111122' 
DISL,ioos:station:DISL:MHPA:1,2013-01-04T15:00:00Z,30.6671,-87.9365,8.5,2.44,352.9,-9999.0,'1111122,1111122,1111122' 
DISL,ioos:station:DISL:MHPA:1,2013-01-04T15:30:00Z,30.6671,-87.9365,8.5,2.1,22.91,-9999.0,'1111122,1111122,1111122' 
DISL,ioos:station:DISL:MHPA:1,2013-01-04T16:00:00Z,30.6671,-87.9365,8.5,2.15,358.9,-9999.0,'1111122,1111122,1111122' 
DISL,ioos:station:DISL:MHPA:1,2013-01-04T16:30:00Z,30.6671,-87.9365,8.5,3.57,354.2,-9999.0,'1111122,1111122,1111122' 
DISL,ioos:station:DISL:MHPA:1,2013-01-04T17:00:00Z,30.6671,-87.9365,8.5,4.18,340.9,-9999.0,'1111122,1111122,1111122' 
DISL,ioos:station:DISL:MHPA:1,2013-01-04T17:30:00Z,30.6671,-87.9365,8.5,4.38,341.6,-9999.0,'1111122,1111122,1111122' 
DISL,ioos:station:DISL:MHPA:1,2013-01-04T18:00:00Z,30.6671,-87.9365,8.5,3.59,342.2,-9999.0,'1111122,1111122,1111122' 
DISL,ioos:station:DISL:MHPA:1,2013-01-04T18:30:00Z,30.6671,-87.9365,8.5,3.19,354.1,-9999.0,'1111122,1111122,1111122' 
DISL,ioos:station:DISL:MHPA:1,2013-01-04T19:00:00Z,30.6671,-87.9365,8.5,5.0,339.9,-9999.0,'1111122,1111122,1111122' 
DISL,ioos:station:DISL:MHPA:1,2013-01-04T19:30:00Z,30.6671,-87.9365,8.5,3.89,343.1,-9999.0,'1111122,1111122,1111122' 
DISL,ioos:station:DISL:MHPA:1,2013-01-04T20:00:00Z,30.6671,-87.9365,8.5,3.08,0.262,-9999.0,'1111122,1111122,1111122' 
DISL,ioos:station:DISL:MHPA:1,2013-01-04T21:00:00Z,30.6671,-87.9365,8.5,3.41,340.5,-9999.0,'1111122,1111122,1111122' 
DISL,ioos:station:DISL:MHPA:1,2013-01-04T21:30:00Z,30.6671,-87.9365,8.5,3.05,352.9,-9999.0,'1111122,1111122,1111122' 
DISL,ioos:station:DISL:MHPA:1,2013-01-04T22:00:00Z,30.6671,-87.9365,8.5,3.09,356.7,-9999.0,'1111122,1111122,1111122' 
DISL,ioos:station:DISL:MHPA:1,2013-01-04T22:30:00Z,30.6671,-87.9365,8.5,2.4,6.023,-9999.0,'1111122,1111122,1111122' 
DISL,ioos:station:DISL:MHPA:1,2013-01-04T23:00:00Z,30.6671,-87.9365,8.5,1.23,0.552,-9999.0,'1111122,1111122,1111122' 
DISL,ioos:station:DISL:MHPA:1,2013-01-04T23:30:00Z,30.6671,-87.9365,8.5,0.74,42.06,-9999.0,'1111122,1111122,1111122' 
DISL,ioos:station:DISL:MHPA:1,2013-01-05T00:00:00Z,30.6671,-87.9365,8.5,1.42,358.7,-9999.0,'1111122,1111122,1111122' 
DISL,ioos:station:DISL:MHPA:1,2013-01-05T00:30:00Z,30.6671,-87.9365,8.5,0.93,357.7,-9999.0,'1111122,1111122,1111122' 
DISL,ioos:station:DISL:MHPA:1,2013-01-05T01:00:00Z,30.6671,-87.9365,8.5,0.76,14.32,-9999.0,'1111122,1111122,1111122' 
DISL,ioos:station:DISL:MHPA:1,2013-01-05T01:30:00Z,30.6671,-87.9365,8.5,0.92,44.77,-9999.0,'1111122,1111122,1111122' 
DISL,ioos:station:DISL:MHPA:1,2013-01-05T02:00:00Z,30.6671,-87.9365,8.5,0.9,30.09,-9999.0,'1111122,1111122,1111122' 
DISL,ioos:station:DISL:MHPA:1,2013-01-05T02:30:00Z,30.6671,-87.9365,8.5,1.85,5.36,-9999.0,'1111122,1111122,1111122' 
DISL,ioos:station:DISL:MHPA:1,2013-01-05T03:00:00Z,30.6671,-87.9365,8.5,1.12,20.29,-9999.0,'1111122,1111122,1111122' 
DISL,ioos:station:DISL:MHPA:1,2013-01-05T03:30:00Z,30.6671,-87.9365,8.5,0.89,36.83,-9999.0,'1111122,1111122,1111122' 
DISL,ioos:station:DISL:MHPA:1,2013-01-05T04:00:00Z,30.6671,-87.9365,8.5,1.33,13.64,-9999.0,'1111122,1111122,1111122' 
DISL,ioos:station:DISL:MHPA:1,2013-01-05T04:30:00Z,30.6671,-87.9365,8.5,2.04,358.8,-9999.0,'1111122,1111122,1111122' 
DISL,ioos:station:DISL:MHPA:1,2013-01-05T05:00:00Z,30.6671,-87.9365,8.5,1.82,12.49,-9999.0,'1111122,1111122,1111122' 
DISL,ioos:station:DISL:MHPA:1,2013-01-05T05:30:00Z,30.6671,-87.9365,8.5,1.52,14.83,-9999.0,'1111122,1111122,1111122' 
DISL,ioos:station:DISL:MHPA:1,2013-01-05T06:00:00Z,30.6671,-87.9365,8.5,1.84,13.66,-9999.0,'1111122,1111122,1111122' 
DISL,ioos:station:DISL:MHPA:1,2013-01-05T06:30:00Z,30.6671,-87.9365,8.5,2.01,12.24,-9999.0,'1111122,1111122,1111122' 
DISL,ioos:station:DISL:MHPA:1,2013-01-05T07:00:00Z,30.6671,-87.9365,8.5,2.58,22.64,-9999.0,'1111122,1111122,1111122' 
DISL,ioos:station:DISL:MHPA:1,2013-01-05T07:30:00Z,30.6671,-87.9365,8.5,1.7,6.297,-9999.0,'1111122,1111122,1111122' 
DISL,ioos:station:DISL:MHPA:1,2013-01-05T08:00:00Z,30.6671,-87.9365,8.5,1.96,0.348,-9999.0,'1111122,1111122,1111122' 
DISL,ioos:station:DISL:MHPA:1,2013-01-05T08:30:00Z,30.6671,-87.9365,8.5,1.87,354.8,-9999.0,'1111122,1111122,1111122' 
DISL,ioos:station:DISL:MHPA:1,2013-01-05T09:00:00Z,30.6671,-87.9365,8.5,1.71,353.0,-9999.0,'1111122,1111122,1111122' 
DISL,ioos:station:DISL:MHPA:1,2013-01-05T09:30:00Z,30.6671,-87.9365,8.5,1.99,354.1,-9999.0,'1111122,1111122,1111122' 
DISL,ioos:station:DISL:MHPA:1,2013-01-05T10:00:00Z,30.6671,-87.9365,8.5,1.91,1.209,-9999.0,'1111122,1111122,1111122' 
DISL,ioos:station:DISL:MHPA:1,2013-01-05T10:30:00Z,30.6671,-87.9365,8.5,1.47,357.1,-9999.0,'1111122,1111122,1111122' 
DISL,ioos:station:DISL:MHPA:1,2013-01-05T11:00:00Z,30.6671,-87.9365,8.5,1.15,9.0,-9999.0,'1111122,1111122,1111122' 
DISL,ioos:station:DISL:MHPA:1,2013-01-05T11:30:00Z,30.6671,-87.9365,8.5,0.95,22.97,-9999.0,'1111122,1111122,1111122' 